| time (UTC) | temp F | wind direction | speed knots | gust knots | rain 1hr in | rain 24hr in | rain mn in | humidity % | barometer mb |
| 20260510183005 | 61 | 210 | 12.2 | 0.0 | 0.00 | 0.00 | 0.00 | 48 | 1012.0 |
| 20260510181503 | 61 | 210 | 12.2 | 0.0 | 0.00 | 0.00 | 0.00 | 48 | 1012.0 |
| 20260510180004 | 61 | 220 | 14.8 | 0.0 | 0.00 | 0.00 | 0.00 | 48 | 1012.0 |
| 20260510173004 | 61 | 200 | 10.4 | 0.0 | 0.00 | 0.00 | 0.00 | 55 | 1012.0 |
| 20260510170004 | 59 | 210 | 7.8 | 0.0 | 0.00 | 0.00 | 0.00 | 67 | 1012.0 |
| 20260510163004 | 59 | 0 | 7.8 | 0.0 | 0.00 | 0.00 | 0.00 | 67 | 1012.0 |
| 20260510161503 | 59 | 0 | 7.8 | 0.0 | 0.00 | 0.00 | 0.00 | 67 | 1012.0 |
| 20260510160004 | 57 | 230 | 0.9 | 0.0 | 0.00 | 0.00 | 0.00 | 67 | 1012.0 |
| 20260510154504 | 57 | 230 | 0.9 | 0.0 | 0.00 | 0.00 | 0.00 | 67 | 1012.0 |
| 20260510153005 | 55 | 230 | 12.2 | 0.0 | 0.00 | 0.00 | 0.00 | 71 | 1013.0 |
| 20260510151504 | 55 | 230 | 12.2 | 0.0 | 0.00 | 0.00 | 0.00 | 71 | 1013.0 |
| 20260510150004 | 55 | 230 | 12.2 | 0.0 | 0.00 | 0.00 | 0.00 | 71 | 1013.0 |
| 20260510140005 | 57 | 210 | 7.8 | 0.0 | 0.00 | 0.00 | 0.00 | 76 | 1012.0 |
| 20260510134505 | 57 | 210 | 7.8 | 0.0 | 0.00 | 0.00 | 0.00 | 76 | 1012.0 |
| 20260510133004 | 55 | 200 | 11.3 | 0.0 | 0.00 | 0.00 | 0.00 | 76 | 1013.0 |
| 20260510130004 | 54 | 240 | 13.9 | 0.0 | 0.00 | 0.00 | 0.00 | 76 | 1013.0 |
| 20260510123004 | 54 | 240 | 11.3 | 0.0 | 0.00 | 0.00 | 0.00 | 87 | 1013.0 |
| 20260510121504 | 54 | 240 | 11.3 | 0.0 | 0.00 | 0.00 | 0.00 | 87 | 1013.0 |
| 20260510114504 | 54 | 230 | 13.9 | 0.0 | 0.00 | 0.00 | 0.00 | 81 | 1013.0 |
| 20260510113004 | 54 | 250 | 13.9 | 0.0 | 0.00 | 0.00 | 0.00 | 87 | 1012.0 |
| 20260510110004 | 59 | 170 | 12.2 | 0.0 | 0.00 | 0.00 | 0.00 | 72 | 1012.0 |
| 20260510103004 | 55 | 170 | 11.3 | 0.0 | 0.00 | 0.00 | 0.00 | 87 | 1012.0 |
| 20260510100005 | 55 | 160 | 7.8 | 0.0 | 0.00 | 0.00 | 0.00 | 93 | 1013.0 |
| 20260510093005 | 54 | 160 | 0.9 | 0.0 | 0.00 | 0.00 | 0.00 | 100 | 1013.0 |
| 20260510091504 | 54 | 160 | 0.9 | 0.0 | 0.00 | 0.00 | 0.00 | 100 | 1013.0 |
| 20260510090004 | 54 | 170 | 10.4 | 0.0 | 0.00 | 0.00 | 0.00 | 93 | 1013.0 |
| 20260510084503 | 54 | 170 | 10.4 | 0.0 | 0.00 | 0.00 | 0.00 | 93 | 1013.0 |
| 20260510083005 | 54 | 170 | 7.0 | 0.0 | 0.00 | 0.00 | 0.00 | 87 | 1013.0 |
| 20260510081503 | 54 | 170 | 7.0 | 0.0 | 0.00 | 0.00 | 0.00 | 87 | 1013.0 |
| 20260510074504 | 52 | 0 | 1.7 | 0.0 | 0.00 | 0.00 | 0.00 | 100 | 1013.0 |
| 20260510073004 | 50 | 0 | 0.9 | 0.0 | 0.00 | 0.00 | 0.00 | 100 | 1013.0 |
| 20260510060004 | 48 | 150 | 0.9 | 0.0 | 0.00 | 0.00 | 0.00 | 100 | 1012.0 |
| 20260510053004 | 48 | 0 | 1.7 | 0.0 | 0.00 | 0.00 | 0.00 | 100 | 1012.0 |
| 20260510050005 | 48 | 130 | 4.3 | 0.0 | 0.00 | 0.00 | 0.00 | 100 | 1012.0 |
| 20260510041504 | 48 | 120 | 4.3 | 0.0 | 0.00 | 0.00 | 0.00 | 100 | 1013.0 |
| 20260510040005 | 48 | 130 | 2.6 | 0.0 | 0.00 | 0.00 | 0.00 | 100 | 1013.0 |
| 20260510034504 | 48 | 130 | 2.6 | 0.0 | 0.00 | 0.00 | 0.00 | 100 | 1013.0 |
| 20260510031504 | 50 | 140 | 4.3 | 0.0 | 0.00 | 0.00 | 0.00 | 100 | 1013.0 |
| 20260510023004 | 50 | 140 | 4.3 | 0.0 | 0.00 | 0.00 | 0.00 | 100 | 1013.0 |
| 20260510020005 | 52 | 150 | 5.2 | 0.0 | 0.00 | 0.00 | 0.00 | 100 | 1013.0 |
| 20260510013004 | 52 | 180 | 5.2 | 0.0 | 0.00 | 0.00 | 0.00 | 93 | 1013.0 |
| 20260510004504 | 52 | 160 | 2.6 | 0.0 | 0.00 | 0.00 | 0.00 | 100 | 1013.0 |
| 20260510001504 | 52 | 180 | 4.3 | 0.0 | 0.00 | 0.00 | 0.00 | 100 | 1013.0 |
| 20260510000004 | 52 | 190 | 7.0 | 0.0 | 0.00 | 0.00 | 0.00 | 100 | 1014.0 |
| 20260509234503 | 52 | 190 | 7.0 | 0.0 | 0.00 | 0.00 | 0.00 | 100 | 1014.0 |
| 20260509233004 | 52 | 170 | 5.2 | 0.0 | 0.00 | 0.00 | 0.00 | 100 | 1014.0 |
| 20260509231504 | 52 | 170 | 5.2 | 0.0 | 0.00 | 0.00 | 0.00 | 100 | 1014.0 |
| 20260509223005 | 52 | 250 | 7.0 | 0.0 | 0.00 | 0.00 | 0.00 | 93 | 1012.0 |
| 20260509221504 | 52 | 250 | 7.0 | 0.0 | 0.00 | 0.00 | 0.00 | 93 | 1012.0 |
| 20260509220007 | 52 | 250 | 10.4 | 0.0 | 0.00 | 0.00 | 0.00 | 100 | 1012.0 |
| 20260509213004 | 52 | 250 | 11.3 | 0.0 | 0.00 | 0.00 | 0.00 | 100 | 1012.0 |
| 20260509210004 | 57 | 170 | 10.4 | 0.0 | 0.00 | 0.00 | 0.00 | 71 | 1011.0 |
| 20260509203004 | 57 | 160 | 10.4 | 0.0 | 0.00 | 0.00 | 0.00 | 76 | 1010.0 |
| 20260509190004 | 59 | 140 | 7.0 | 0.0 | 0.00 | 0.00 | 0.00 | 82 | 1010.0 |